QPF
0.00 0.00 0.00 0.00 0.00 0.00 0.00 0.00 0.00 0.00 0.00 0.00 0.00 0.00 0.00 0.00 0.00 0.01 0.02 0.03 0.03 0.03 0.02 0.02 0.02 0.02 0.03 0.04 0.05 0.05 0.05 0.05 0.06 0.04 0.02 0.02 0.02 0.01 0.01 0.01 0.01 0.00 0.00
0.00 0.00 0.00 0.00 0.00 0.00 0.00 0.00 0.00 0.00 0.00 0.00 0.00 0.00 0.00 0.00 0.00 0.01 0.01 0.02 0.02 0.03 0.02 0.02 0.02 0.02 0.03 0.04 0.05 0.05 0.05 0.05 0.05 0.05 0.03 0.02 0.02 0.02 0.01 0.01 0.01 0.01 0.01
0.00 0.00 0.00 0.00 0.00 0.00 0.00 0.00 0.00 0.00 0.00 0.00 0.00 0.00 0.00 0.00 0.00 0.00 0.01 0.01 0.02 0.02 0.02 0.03 0.03 0.04 0.05 0.05 0.06 0.07 0.07 0.07 0.07 0.07 0.05 0.03 0.03 0.02 0.02 0.02 0.01 0.01 0.01
0.00 0.00 0.00 0.00 0.00 0.00 0.00 0.00 0.00 0.00 0.00 0.00 0.00 0.00 0.00 0.00 0.00 0.00 0.00 0.01 0.01 0.02 0.02 0.03 0.04 0.06 0.07 0.08 0.09 0.10 0.10 0.10 0.09 0.08 0.06 0.04 0.03 0.03 0.03 0.02 0.02 0.02 0.01
0.00 0.00 0.00 0.00 0.00 0.00 0.00 0.00 0.00 0.00 0.00 0.00 0.00 0.00 0.00 0.00 0.00 0.00 0.00 0.00 0.01 0.01 0.02 0.03 0.04 0.06 0.08 0.09 0.09 0.09 0.09 0.10 0.09 0.08 0.07 0.05 0.04 0.04 0.04 0.03 0.03 0.02 0.02
0.00 0.00 0.00 0.00 0.00 0.00 0.00 0.00 0.00 0.00 0.00 0.00 0.00 0.00 0.00 0.00 0.00 0.00 0.00 0.00 0.00 0.01 0.01 0.02 0.03 0.05 0.07 0.09 0.10 0.09 0.09 0.08 0.08 0.08 0.07 0.06 0.05 0.05 0.05 0.06 0.05 0.03 0.02
0.00 0.00 0.00 0.00 0.00 0.00 0.00 0.00 0.00 0.00 0.00 0.00 0.00 0.00 0.00 0.00 0.00 0.00 0.00 0.00 0.00 0.00 0.01 0.01 0.02 0.03 0.05 0.06 0.09 0.11 0.10 0.08 0.08 0.08 0.08 0.07 0.06 0.07 0.07 0.07 0.05 0.03 0.02
0.00 0.00 0.00 0.00 0.00 0.00 0.00 0.00 0.00 0.00 0.00 0.00 0.00 0.00 0.00 0.00 0.00 0.00 0.00 0.00 0.00 0.00 0.00 0.01 0.01 0.02 0.04 0.06 0.09 0.11 0.11 0.10 0.10 0.10 0.08 0.07 0.07 0.07 0.07 0.06 0.05 0.04 0.02
0.00 0.00 0.00 0.00 0.00 0.00 0.00 0.00 0.00 0.00 0.00 0.00 0.00 0.00 0.00 0.00 0.00 0.00 0.00 0.00 0.00 0.00 0.00 0.01 0.02 0.03 0.06 0.10 0.12 0.13 0.13 0.13 0.12 0.11 0.09 0.08 0.08 0.07 0.07 0.07 0.06 0.05 0.04
0.00 0.00 0.00 0.00 0.00 0.00 0.00 0.00 0.00 0.00 0.00 0.00 0.00 0.00 0.00 0.00 0.00 0.00 0.00 0.00 0.00 0.01 0.01 0.03 0.04 0.06 0.09 0.13 0.13 0.12 0.13 0.12 0.13 0.13 0.11 0.09 0.08 0.07 0.07 0.08 0.07 0.07 0.05
0.00 0.00 0.00 0.00 0.00 0.00 0.00 0.00 0.00 0.00 0.00 0.00 0.00 0.00 0.00 0.00 0.00 0.00 0.01 0.01 0.01 0.02 0.03 0.05 0.07 0.09 0.12 0.13 0.13 0.12 0.10 0.11 0.13 0.12 0.11 0.09 0.08 0.08 0.08 0.08 0.07 0.07 0.06
0.00 0.00 0.00 0.00 0.00 0.00 0.00 0.00 0.00 0.00 0.00 0.00 0.00 0.00 0.00 0.00 0.01 0.01 0.02 0.02 0.03 0.04 0.05 0.06 0.08 0.11 0.13 0.13 0.13 0.11 0.11 0.14 0.13 0.11 0.10 0.08 0.07 0.07 0.06 0.07 0.07 0.06 0.05
0.00 0.00 0.00 0.00 0.00 0.00 0.00 0.00 0.00 0.00 0.00 0.01 0.01 0.01 0.01 0.01 0.01 0.02 0.03 0.04 0.05 0.05 0.06 0.07 0.09 0.11 0.13 0.13 0.12 0.11 0.12 0.12 0.10 0.09 0.08 0.06 0.05 0.05 0.06 0.06 0.05 0.05 0.05
0.00 0.00 0.00 0.00 0.00 0.00 0.01 0.01 0.01 0.01 0.01 0.01 0.01 0.02 0.02 0.02 0.02 0.03 0.04 0.05 0.06 0.07 0.07 0.08 0.10 0.12 0.12 0.11 0.10 0.11 0.10 0.08 0.07 0.07 0.06 0.05 0.06 0.06 0.05 0.04 0.05 0.05 0.05
0.01 0.01 0.01 0.01 0.01 0.02 0.02 0.02 0.02 0.02 0.02 0.03 0.03 0.03 0.03 0.03 0.03 0.03 0.04 0.04 0.05 0.06 0.07 0.08 0.09 0.09 0.10 0.10 0.09 0.09 0.08 0.07 0.07 0.07 0.07 0.06 0.06 0.05 0.04 0.04 0.04 0.04 0.04
0.02 0.02 0.03 0.03 0.03 0.04 0.04 0.05 0.06 0.06 0.06 0.05 0.05 0.05 0.05 0.04 0.04 0.04 0.04 0.04 0.04 0.05 0.05 0.05 0.05 0.05 0.05 0.05 0.05 0.06 0.05 0.05 0.05 0.05 0.05 0.05 0.04 0.04 0.04 0.04 0.03 0.03 0.02
0.04 0.04 0.05 0.05 0.06 0.06 0.06 0.06 0.07 0.07 0.06 0.06 0.06 0.05 0.04 0.04 0.03 0.03 0.03 0.03 0.04 0.04 0.04 0.03 0.03 0.04 0.04 0.04 0.04 0.03 0.03 0.03 0.03 0.04 0.04 0.03 0.03 0.03 0.03 0.03 0.02 0.02 0.02
0.05 0.05 0.05 0.06 0.06 0.06 0.06 0.06 0.06 0.05 0.05 0.05 0.05 0.04 0.04 0.03 0.02 0.02 0.02 0.02 0.03 0.04 0.03 0.02 0.02 0.03 0.03 0.03 0.03 0.03 0.03 0.03 0.03 0.03 0.03 0.03 0.03 0.02 0.02 0.02 0.02 0.02 0.02
0.06 0.06 0.06 0.06 0.06 0.06 0.06 0.06 0.05 0.05 0.05 0.04 0.04 0.03 0.03 0.02 0.02 0.02 0.01 0.01 0.01 0.02 0.02 0.02 0.02 0.02 0.02 0.02 0.02 0.02 0.02 0.02 0.02 0.02 0.02 0.02 0.02 0.02 0.02 0.01 0.01 0.01 0.01
0.07 0.07 0.07 0.07 0.07 0.07 0.06 0.06 0.05 0.05 0.04 0.03 0.03 0.02 0.02 0.01 0.01 0.01 0.01 0.01 0.01 0.01 0.01 0.01 0.01 0.01 0.01 0.01 0.01 0.01 0.01 0.01 0.01 0.01 0.01 0.01 0.01 0.01 0.01 0.01 0.01 0.01 0.01
0.07 0.07 0.08 0.08 0.07 0.07 0.06 0.05 0.05 0.04 0.03 0.03 0.02 0.02 0.01 0.01 0.01 0.01 0.01 0.01 0.01 0.01 0.01 0.01 0.01 0.01 0.01 0.01 0.01 0.01 0.01 0.01 0.01 0.01 0.01 0.01 0.01 0.01 0.01 0.01 0.01 0.01 0.01
0.07 0.07 0.07 0.07 0.06 0.05 0.05 0.04 0.04 0.03 0.03 0.02 0.02 0.02 0.01 0.01 0.01 0.01 0.01 0.01 0.01 0.01 0.01 0.01 0.00 0.00 0.00 0.00 0.00 0.00 0.00 0.00 0.00 0.00 0.00 0.00 0.01 0.01 0.01 0.01 0.01 0.01 0.01
0.07 0.07 0.06 0.05 0.05 0.04 0.04 0.03 0.03 0.02 0.02 0.02 0.01 0.01 0.01 0.01 0.01 0.00 0.00 0.00 0.00 0.00 0.00 0.00 0.00 0.00 0.00 0.00 0.00 0.00 0.00 0.00 0.00 0.00 0.00 0.00 0.00 0.00 0.00 0.01 0.01 0.01 0.01
0.06 0.05 0.05 0.04 0.03 0.03 0.03 0.02 0.02 0.02 0.01 0.01 0.01 0.01 0.01 0.00 0.00 0.00 0.00 0.00 0.00 0.00 0.00 0.00 0.00 0.00 0.00 0.00 0.00 0.00 0.00 0.00 0.00 0.00 0.00 0.00 0.00 0.00 0.00 0.00 0.00 0.00 0.00
0.05 0.04 0.04 0.03 0.02 0.02 0.02 0.01 0.01 0.01 0.01 0.01 0.01 0.01 0.00 0.00 0.00 0.00 0.00 0.00 0.00 0.00 0.00 0.00 0.00 0.00 0.00 0.00 0.00 0.00 0.00 0.00 0.00 0.00 0.00 0.00 0.00 0.00 0.00 0.00 0.00 0.00 0.00
0.04 0.03 0.03 0.02 0.02 0.02 0.01 0.01 0.01 0.01 0.01 0.00 0.00 0.00 0.00 0.00 0.00 0.00 0.00 0.00 0.00 0.00 0.00 0.00 0.00 0.00 0.00 0.00 0.00 0.00 0.00 0.00 0.00 0.00 0.00 0.00 0.00 0.00 0.00 0.00 0.00 0.00 0.00
MSLP
1015.40 1015.48 1015.58 1015.69 1015.80 1015.90 1015.97 1016.04 1016.11 1016.20 1016.33 1016.50 1016.72 1016.96 1017.21 1017.46 1017.68 1017.87 1018.01 1018.11 1018.18 1018.23 1018.29 1018.37 1018.48 1018.64 1018.85 1019.12 1019.44 1019.82 1020.25 1020.72 1021.23 1021.76 1022.30 1022.83 1023.36 1023.86 1024.33 1024.78 1025.20 1025.59 1025.96
1015.55 1015.56 1015.58 1015.61 1015.63 1015.63 1015.62 1015.61 1015.62 1015.67 1015.75 1015.89 1016.08 1016.30 1016.53 1016.76 1016.97 1017.14 1017.27 1017.36 1017.41 1017.44 1017.46 1017.50 1017.56 1017.67 1017.82 1018.05 1018.34 1018.70 1019.13 1019.63 1020.17 1020.75 1021.35 1021.96 1022.55 1023.12 1023.66 1024.16 1024.62 1025.04 1025.43
1015.70 1015.67 1015.62 1015.56 1015.49 1015.39 1015.29 1015.20 1015.14 1015.12 1015.16 1015.26 1015.41 1015.60 1015.81 1016.02 1016.21 1016.37 1016.49 1016.57 1016.61 1016.63 1016.63 1016.64 1016.67 1016.74 1016.86 1017.05 1017.32 1017.66 1018.09 1018.60 1019.17 1019.80 1020.45 1021.12 1021.78 1022.41 1023.00 1023.55 1024.06 1024.51 1024.92
1015.90 1015.80 1015.69 1015.54 1015.37 1015.18 1014.99 1014.81 1014.68 1014.60 1014.58 1014.64 1014.75 1014.91 1015.09 1015.28 1015.46 1015.61 1015.72 1015.80 1015.84 1015.85 1015.85 1015.84 1015.85 1015.90 1015.99 1016.15 1016.39 1016.72 1017.15 1017.66 1018.25 1018.90 1019.60 1020.32 1021.03 1021.71 1022.36 1022.95 1023.49 1023.97 1024.40
1016.14 1015.99 1015.79 1015.55 1015.28 1014.99 1014.71 1014.45 1014.25 1014.11 1014.05 1014.06 1014.14 1014.27 1014.43 1014.60 1014.76 1014.90 1015.01 1015.09 1015.13 1015.15 1015.15 1015.15 1015.15 1015.18 1015.26 1015.40 1015.61 1015.92 1016.33 1016.84 1017.43 1018.09 1018.81 1019.56 1020.31 1021.04 1021.72 1022.36 1022.93 1023.43 1023.87
1016.45 1016.22 1015.93 1015.60 1015.22 1014.84 1014.47 1014.15 1013.88 1013.70 1013.60 1013.58 1013.63 1013.74 1013.88 1014.03 1014.17 1014.31 1014.41 1014.49 1014.55 1014.58 1014.59 1014.59 1014.60 1014.63 1014.69 1014.81 1015.01 1015.29 1015.68 1016.16 1016.74 1017.40 1018.12 1018.88 1019.64 1020.39 1021.10 1021.76 1022.35 1022.88 1023.32
1016.81 1016.49 1016.10 1015.67 1015.20 1014.73 1014.29 1013.91 1013.60 1013.38 1013.26 1013.21 1013.25 1013.33 1013.45 1013.58 1013.71 1013.84 1013.94 1014.03 1014.09 1014.14 1014.17 1014.20 1014.22 1014.25 1014.32 1014.43 1014.60 1014.86 1015.21 1015.66 1016.21 1016.84 1017.54 1018.29 1019.05 1019.80 1020.51 1021.17 1021.77 1022.29 1022.74
1017.18 1016.77 1016.30 1015.77 1015.21 1014.67 1014.17 1013.74 1013.40 1013.17 1013.03 1012.97 1012.99 1013.06 1013.15 1013.26 1013.37 1013.48 1013.58 1013.67 1013.75 1013.82 1013.88 1013.94 1013.99 1014.04 1014.12 1014.22 1014.38 1014.61 1014.93 1015.34 1015.84 1016.43 1017.10 1017.80 1018.53 1019.26 1019.95 1020.59 1021.17 1021.68 1022.12
1017.52 1017.03 1016.47 1015.86 1015.24 1014.64 1014.10 1013.65 1013.30 1013.05 1012.91 1012.84 1012.84 1012.89 1012.95 1013.03 1013.11 1013.20 1013.29 1013.38 1013.47 1013.57 1013.67 1013.76 1013.85 1013.94 1014.03 1014.15 1014.30 1014.52 1014.80 1015.17 1015.62 1016.16 1016.77 1017.43 1018.10 1018.78 1019.42 1020.03 1020.57 1021.05 1021.46
1017.76 1017.21 1016.59 1015.92 1015.25 1014.62 1014.06 1013.60 1013.26 1013.02 1012.87 1012.80 1012.77 1012.79 1012.81 1012.85 1012.89 1012.94 1013.01 1013.10 1013.20 1013.33 1013.46 1013.60 1013.74 1013.87 1014.00 1014.14 1014.31 1014.51 1014.77 1015.10 1015.51 1015.99 1016.54 1017.13 1017.74 1018.35 1018.93 1019.47 1019.96 1020.40 1020.79
1017.87 1017.28 1016.61 1015.91 1015.22 1014.58 1014.04 1013.59 1013.26 1013.03 1012.89 1012.80 1012.76 1012.73 1012.70 1012.69 1012.68 1012.69 1012.72 1012.80 1012.91 1013.06 1013.23 1013.42 1013.61 1013.80 1013.97 1014.15 1014.33 1014.54 1014.79 1015.09 1015.45 1015.88 1016.37 1016.89 1017.43 1017.96 1018.48 1018.95 1019.39 1019.78 1020.13
1017.83 1017.21 1016.52 1015.81 1015.12 1014.51 1013.99 1013.58 1013.28 1013.08 1012.94 1012.85 1012.77 1012.70 1012.62 1012.54 1012.48 1012.44 1012.44 1012.49 1012.61 1012.77 1012.98 1013.22 1013.46 1013.70 1013.92 1014.14 1014.35 1014.57 1014.81 1015.10 1015.43 1015.81 1016.24 1016.69 1017.17 1017.64 1018.08 1018.50 1018.88 1019.23 1019.56
1017.64 1017.00 1016.31 1015.61 1014.96 1014.39 1013.92 1013.57 1013.32 1013.14 1013.02 1012.93 1012.83 1012.72 1012.59 1012.45 1012.33 1012.24 1012.20 1012.23 1012.34 1012.52 1012.76 1013.03 1013.32 1013.61 1013.88 1014.13 1014.37 1014.60 1014.85 1015.12 1015.43 1015.77 1016.15 1016.56 1016.97 1017.39 1017.78 1018.15 1018.50 1018.82 1019.15
1017.35 1016.70 1016.01 1015.34 1014.73 1014.22 1013.83 1013.54 1013.35 1013.23 1013.14 1013.06 1012.95 1012.81 1012.64 1012.47 1012.30 1012.17 1012.10 1012.11 1012.21 1012.40 1012.66 1012.96 1013.28 1013.60 1013.91 1014.19 1014.45 1014.69 1014.94 1015.20 1015.48 1015.80 1016.14 1016.51 1016.89 1017.27 1017.63 1017.97 1018.31 1018.63 1018.96
1017.00 1016.34 1015.67 1015.03 1014.48 1014.04 1013.73 1013.53 1013.42 1013.36 1013.32 1013.26 1013.17 1013.03 1012.85 1012.65 1012.46 1012.31 1012.23 1012.23 1012.33 1012.52 1012.78 1013.10 1013.44 1013.77 1014.10 1014.39 1014.66 1014.90 1015.14 1015.39 1015.66 1015.95 1016.27 1016.61 1016.97 1017.32 1017.68 1018.02 1018.35 1018.69 1019.04
1016.66 1015.98 1015.32 1014.73 1014.24 1013.89 1013.67 1013.56 1013.53 1013.55 1013.58 1013.58 1013.53 1013.42 1013.26 1013.08 1012.90 1012.76 1012.68 1012.68 1012.78 1012.97 1013.24 1013.55 1013.88 1014.22 1014.54 1014.82 1015.08 1015.31 1015.54 1015.77 1016.01 1016.29 1016.59 1016.91 1017.25 1017.60 1017.96 1018.31 1018.66 1019.02 1019.40
1016.36 1015.67 1015.03 1014.49 1014.08 1013.81 1013.68 1013.67 1013.73 1013.84 1013.95 1014.03 1014.05 1014.00 1013.90 1013.76 1013.63 1013.52 1013.47 1013.49 1013.60 1013.79 1014.05 1014.34 1014.66 1014.97 1015.27 1015.52 1015.76 1015.96 1016.16 1016.36 1016.59 1016.83 1017.11 1017.42 1017.76 1018.11 1018.47 1018.83 1019.20 1019.58 1019.98
1016.13 1015.45 1014.84 1014.36 1014.02 1013.84 1013.80 1013.89 1014.05 1014.26 1014.46 1014.62 1014.73 1014.77 1014.75 1014.69 1014.63 1014.58 1014.57 1014.63 1014.75 1014.94 1015.18 1015.45 1015.74 1016.01 1016.26 1016.48 1016.67 1016.84 1017.00 1017.17 1017.36 1017.58 1017.83 1018.12 1018.44 1018.79 1019.15 1019.52 1019.90 1020.29 1020.69
1016.00 1015.35 1014.79 1014.37 1014.12 1014.02 1014.08 1014.25 1014.51 1014.80 1015.10 1015.36 1015.56 1015.70 1015.78 1015.81 1015.83 1015.85 1015.90 1015.99 1016.13 1016.32 1016.54 1016.78 1017.01 1017.24 1017.44 1017.60 1017.74 1017.86 1017.98 1018.11 1018.27 1018.46 1018.68 1018.95 1019.24 1019.57 1019.91 1020.27 1020.64 1021.02 1021.41
1015.97 1015.38 1014.90 1014.57 1014.40 1014.39 1014.53 1014.78 1015.12 1015.49 1015.87 1016.21 1016.50 1016.74 1016.91 1017.04 1017.14 1017.24 1017.34 1017.46 1017.61 1017.78 1017.97 1018.17 1018.35 1018.51 1018.65 1018.76 1018.85 1018.92 1019.00 1019.09 1019.21 1019.36 1019.55 1019.78 1020.04 1020.33 1020.65 1020.98 1021.33 1021.68 1022.04
1016.07 1015.57 1015.19 1014.95 1014.87 1014.95 1015.16 1015.48 1015.87 1016.30 1016.74 1017.15 1017.51 1017.82 1018.07 1018.28 1018.45 1018.60 1018.74 1018.88 1019.02 1019.17 1019.32 1019.45 1019.58 1019.68 1019.75 1019.81 1019.84 1019.88 1019.92 1019.97 1020.05 1020.17 1020.32 1020.51 1020.73 1020.98 1021.26 1021.55 1021.86 1022.17 1022.49
1016.31 1015.93 1015.67 1015.54 1015.56 1015.70 1015.97 1016.33 1016.76 1017.21 1017.68 1018.12 1018.52 1018.88 1019.18 1019.43 1019.64 1019.81 1019.96 1020.10 1020.22 1020.32 1020.42 1020.49 1020.55 1020.59 1020.60 1020.60 1020.60 1020.59 1020.60 1020.63 1020.68 1020.77 1020.89 1021.04 1021.22 1021.43 1021.66 1021.91 1022.17 1022.44 1022.71
1016.74 1016.50 1016.36 1016.34 1016.43 1016.63 1016.93 1017.31 1017.73 1018.19 1018.64 1019.08 1019.48 1019.84 1020.15 1020.41 1020.62 1020.79 1020.92 1021.02 1021.09 1021.14 1021.17 1021.18 1021.16 1021.14 1021.10 1021.05 1021.02 1020.99 1020.97 1020.99 1021.02 1021.09 1021.18 1021.31 1021.45 1021.62 1021.81 1022.02 1022.24 1022.48 1022.72
1017.38 1017.27 1017.24 1017.31 1017.46 1017.70 1018.00 1018.36 1018.76 1019.17 1019.58 1019.97 1020.34 1020.66 1020.94 1021.16 1021.34 1021.47 1021.56 1021.60 1021.61 1021.59 1021.54 1021.48 1021.40 1021.31 1021.23 1021.15 1021.08 1021.04 1021.02 1021.02 1021.05 1021.11 1021.19 1021.30 1021.42 1021.57 1021.73 1021.91 1022.11 1022.32 1022.55
1018.20 1018.21 1018.27 1018.40 1018.59 1018.83 1019.11 1019.43 1019.76 1020.10 1020.43 1020.75 1021.04 1021.30 1021.51 1021.67 1021.79 1021.86 1021.88 1021.85 1021.79 1021.69 1021.57 1021.44 1021.30 1021.16 1021.04 1020.93 1020.85 1020.80 1020.77 1020.78 1020.81 1020.87 1020.95 1021.05 1021.17 1021.30 1021.46 1021.63 1021.82 1022.04 1022.27
1019.18 1019.27 1019.39 1019.55 1019.74 1019.95 1020.18 1020.42 1020.67 1020.91 1021.15 1021.36 1021.56 1021.72 1021.84 1021.93 1021.97 1021.96 1021.91 1021.81 1021.68 1021.51 1021.33 1021.14 1020.95 1020.77 1020.61 1020.49 1020.39 1020.34 1020.31 1020.32 1020.36 1020.43 1020.51 1020.61 1020.73 1020.88 1021.04 1021.22 1021.43 1021.66 1021.91
Thickness
5635 5633 5631 5629 5626 5623 5621 5619 5616 5612 5607 5602 5597 5592 5588 5583 5578 5573 5570 5565 5560 5555 5550 5545 5541 5535 5529 5522 5515 5509 5504 5498 5497 5491 5481 5472 5463 5456 5447 5438 5429 5421 5413
5622 5620 5618 5616 5614 5612 5611 5609 5605 5601 5597 5593 5588 5583 5579 5575 5570 5566 5562 5558 5554 5550 5545 5540 5536 5529 5524 5517 5511 5505 5499 5493 5487 5479 5469 5460 5454 5447 5438 5429 5420 5411 5403
5607 5606 5605 5603 5602 5601 5600 5597 5594 5591 5587 5583 5579 5575 5571 5566 5562 5558 5554 5551 5548 5545 5540 5536 5531 5523 5519 5512 5506 5500 5493 5485 5477 5469 5460 5450 5442 5434 5425 5415 5407 5398 5391
5590 5590 5590 5590 5590 5589 5587 5585 5582 5579 5576 5573 5569 5566 5562 5557 5553 5548 5544 5541 5538 5536 5532 5528 5524 5519 5514 5507 5500 5493 5484 5475 5466 5459 5449 5440 5431 5422 5413 5403 5393 5386 5378
5573 5573 5575 5576 5575 5574 5573 5572 5570 5568 5565 5562 5559 5556 5552 5547 5543 5538 5534 5530 5527 5524 5521 5517 5514 5510 5505 5499 5492 5485 5475 5466 5456 5448 5439 5429 5420 5410 5403 5394 5385 5375 5366
5555 5556 5558 5558 5558 5558 5557 5557 5556 5554 5553 5550 5547 5544 5541 5537 5533 5529 5523 5519 5515 5512 5509 5505 5501 5496 5492 5487 5481 5475 5467 5458 5449 5439 5430 5422 5414 5404 5394 5382 5372 5360 5352
5535 5537 5538 5539 5541 5542 5541 5541 5540 5540 5538 5536 5534 5531 5529 5525 5521 5517 5512 5507 5503 5500 5496 5491 5487 5482 5477 5472 5467 5461 5454 5447 5440 5432 5422 5415 5404 5394 5381 5369 5360 5353 5345
5517 5519 5520 5521 5523 5524 5524 5525 5524 5523 5522 5520 5518 5516 5513 5510 5506 5502 5497 5492 5489 5486 5481 5476 5472 5467 5461 5455 5449 5444 5438 5432 5424 5416 5410 5401 5392 5381 5370 5361 5349 5338 5328
5499 5500 5501 5501 5503 5505 5506 5506 5506 5505 5504 5502 5501 5498 5495 5493 5489 5485 5480 5476 5473 5470 5465 5460 5455 5451 5445 5439 5432 5427 5420 5413 5406 5398 5391 5383 5374 5365 5355 5342 5331 5320 5312
5480 5481 5482 5481 5483 5485 5486 5487 5486 5485 5485 5483 5481 5479 5476 5473 5470 5466 5462 5457 5454 5451 5446 5442 5438 5433 5427 5422 5415 5409 5403 5396 5388 5380 5372 5365 5356 5348 5339 5330 5320 5309 5301
5459 5461 5462 5462 5463 5464 5466 5466 5465 5464 5463 5461 5460 5458 5455 5452 5449 5447 5443 5438 5435 5430 5427 5422 5419 5415 5410 5404 5398 5392 5386 5378 5370 5363 5355 5346 5338 5330 5322 5313 5306 5298 5290
5438 5440 5441 5443 5443 5443 5443 5444 5442 5441 5440 5438 5436 5434 5432 5430 5427 5425 5423 5419 5415 5410 5406 5402 5398 5395 5391 5386 5380 5374 5367 5360 5352 5344 5337 5329 5322 5314 5306 5298 5290 5283 5278
5416 5418 5420 5421 5421 5421 5420 5420 5419 5417 5415 5414 5412 5411 5409 5406 5404 5403 5401 5399 5395 5390 5386 5383 5379 5376 5372 5367 5362 5356 5349 5342 5335 5328 5321 5313 5306 5299 5290 5282 5275 5268 5261
5393 5396 5397 5398 5399 5398 5396 5396 5394 5393 5391 5390 5387 5386 5384 5382 5381 5379 5378 5376 5374 5370 5366 5363 5360 5356 5352 5347 5342 5337 5331 5324 5318 5312 5305 5297 5289 5282 5274 5267 5259 5252 5245
5371 5373 5375 5375 5375 5374 5373 5372 5371 5371 5369 5367 5364 5362 5361 5361 5361 5361 5359 5355 5353 5350 5346 5342 5339 5335 5332 5328 5323 5318 5312 5306 5300 5294 5288 5280 5273 5266 5259 5252 5245 5237 5230
5348 5351 5352 5353 5353 5352 5351 5350 5350 5349 5349 5347 5346 5344 5341 5342 5342 5342 5341 5338 5335 5332 5327 5323 5318 5315 5311 5307 5303 5298 5293 5287 5282 5277 5271 5264 5257 5250 5243 5235 5228 5221 5214
5324 5328 5330 5332 5332 5331 5329 5329 5327 5326 5326 5326 5326 5325 5323 5322 5322 5322 5322 5319 5316 5312 5306 5302 5298 5295 5291 5287 5283 5278 5272 5267 5263 5258 5253 5246 5240 5234 5227 5219 5211 5204 5197
5304 5307 5310 5312 5312 5312 5310 5309 5307 5306 5303 5301 5302 5303 5303 5302 5302 5302 5301 5298 5293 5288 5284 5280 5276 5273 5269 5265 5261 5256 5252 5247 5243 5238 5233 5227 5221 5215 5209 5201 5194 5187 5179
5286 5289 5291 5292 5293 5293 5292 5290 5288 5286 5283 5281 5280 5281 5280 5281 5280 5279 5277 5272 5267 5263 5260 5256 5253 5250 5247 5243 5239 5235 5231 5227 5222 5218 5212 5207 5201 5195 5189 5182 5176 5169 5160
5267 5270 5272 5274 5274 5274 5273 5272 5269 5267 5264 5261 5260 5259 5258 5257 5254 5251 5249 5246 5243 5239 5236 5234 5231 5228 5225 5222 5218 5214 5210 5206 5201 5197 5192 5186 5181 5175 5169 5163 5156 5148 5141
5248 5250 5253 5254 5255 5255 5254 5252 5250 5248 5245 5241 5239 5241 5240 5234 5230 5227 5224 5222 5219 5217 5214 5213 5210 5207 5205 5202 5199 5195 5191 5186 5181 5176 5171 5165 5160 5154 5148 5142 5135 5128 5120
5230 5232 5234 5235 5235 5234 5233 5232 5230 5228 5224 5221 5218 5217 5218 5213 5210 5206 5203 5201 5198 5197 5195 5193 5190 5187 5184 5182 5179 5175 5171 5166 5161 5155 5150 5145 5139 5133 5127 5120 5114 5106 5097
5214 5215 5215 5215 5215 5214 5213 5211 5209 5207 5204 5202 5199 5197 5194 5192 5189 5187 5184 5182 5180 5179 5176 5174 5172 5169 5166 5163 5159 5156 5151 5146 5141 5136 5130 5124 5118 5111 5105 5098 5091 5083 5075
5197 5197 5197 5197 5196 5195 5194 5191 5189 5187 5185 5182 5180 5178 5176 5173 5171 5169 5167 5165 5163 5161 5158 5156 5154 5151 5147 5144 5140 5136 5132 5127 5122 5117 5111 5104 5097 5090 5084 5077 5070 5063 5055
5179 5179 5179 5178 5177 5176 5174 5173 5171 5169 5167 5165 5163 5161 5159 5157 5154 5152 5150 5148 5146 5144 5141 5139 5136 5132 5129 5125 5122 5117 5112 5107 5103 5097 5091 5085 5077 5070 5063 5056 5049 5042 5036
5161 5161 5160 5160 5159 5158 5157 5155 5153 5152 5150 5148 5146 5144 5142 5140 5138 5136 5134 5132 5129 5126 5124 5121 5117 5114 5110 5107 5103 5098 5093 5088 5083 5078 5072 5064 5057 5050 5043 5036 5030 5023 5017